ECMWFFLT1_925_thetae_132.txt.gz
Theta_e
336 336 334 334 334 332 330 329 328 328 328 329 329 329 329 329 329 329 328 327 326 327 327 328 327 327 326 326 324 324 323 323 323 322 322 322 322 321 321 320 320 321 322 322 322 323 325 325 323 323 322 322 323 324 325 326 324 318 314 317 318 318 321
336 336 335 334 332 330 329 329 329 328 328 329 329 328 328 328 328 327 327 326 326 327 327 327 326 326 326 325 323 322 321 321 321 321 321 321 321 321 320 320 320 321 321 320 320 321 323 324 324 323 322 322 323 323 324 324 321 316 312 312 313 314 317
336 335 334 333 330 329 330 330 329 329 328 328 328 327 327 327 326 326 326 325 326 327 326 325 325 325 325 323 322 321 320 320 319 319 319 320 320 319 319 320 319 320 321 321 321 321 322 323 323 322 322 322 322 323 324 321 317 317 315 311 310 311 312
335 335 333 331 330 330 330 329 329 329 328 328 327 327 326 326 326 325 324 325 325 326 324 324 324 324 323 321 320 320 319 319 318 318 318 318 318 318 318 318 318 318 319 320 321 321 322 322 323 322 321 322 322 322 323 321 316 316 316 312 308 309 310
335 334 332 331 330 330 329 329 328 328 327 326 326 326 325 325 324 323 323 324 325 324 323 323 323 323 322 319 318 319 318 317 317 316 316 316 316 316 316 316 316 316 316 317 318 318 319 320 322 322 321 321 321 320 321 321 318 316 316 314 308 307 308
335 333 331 331 330 329 329 328 328 327 326 325 325 324 323 323 323 323 323 324 323 323 322 322 322 321 320 318 317 317 317 316 315 314 314 314 315 314 314 314 314 313 313 314 314 315 315 317 320 321 320 320 319 318 319 320 319 316 315 314 309 305 306
334 332 331 331 330 329 328 328 327 326 325 324 323 323 322 322 322 323 323 323 322 322 322 321 320 319 318 317 316 316 315 314 313 312 312 312 312 312 311 311 310 310 310 312 313 313 313 314 317 318 319 319 317 315 317 318 318 315 313 313 309 304 305
333 332 331 331 330 328 328 327 326 325 324 323 322 321 321 322 322 322 323 323 322 321 320 320 318 318 318 317 316 314 313 313 311 311 310 310 310 309 309 308 307 307 307 310 312 312 312 312 313 313 315 319 318 316 316 316 315 313 311 310 308 304 304
331 330 330 330 329 328 328 327 325 324 324 323 321 321 321 322 321 321 321 322 321 319 319 319 318 318 317 316 315 313 312 312 311 310 310 309 309 308 307 306 305 304 305 307 310 311 311 311 311 311 312 315 317 317 316 314 312 310 307 307 306 304 303
330 329 328 328 328 327 326 325 325 324 322 321 321 321 322 322 320 320 321 321 319 317 317 318 318 317 317 315 314 312 311 311 311 310 309 308 307 307 306 305 304 303 303 306 309 310 310 310 310 310 310 311 314 316 315 313 311 308 305 305 304 303 303
329 328 327 327 326 325 325 324 324 323 321 321 322 322 322 322 320 319 320 319 317 316 317 318 318 317 316 315 313 311 310 310 310 309 308 307 306 306 305 304 303 303 303 304 307 308 309 309 308 308 308 308 310 312 311 311 310 307 304 304 303 303 302
327 326 326 325 325 324 324 324 323 321 321 322 322 322 322 321 319 318 319 318 317 316 317 318 317 317 316 314 312 310 308 308 308 308 307 306 306 305 304 304 303 303 302 303 305 307 307 307 307 306 306 306 307 308 307 307 307 305 303 303 302 302 302
326 326 325 324 324 324 323 323 322 321 322 322 322 322 322 320 317 318 318 317 318 317 317 317 317 316 315 313 311 310 307 306 307 307 307 306 306 305 304 303 303 303 302 302 304 305 305 305 305 305 305 304 304 305 304 303 304 303 302 302 302 301 302
325 325 324 323 323 322 322 322 322 322 322 322 322 322 321 318 317 317 317 317 318 318 317 317 316 315 314 312 311 310 307 305 305 307 307 306 306 305 304 303 303 303 302 302 303 304 304 304 304 304 304 303 303 303 303 303 302 302 301 301 301 301 301
324 324 323 323 322 321 321 322 322 322 322 322 322 321 319 317 317 317 317 316 316 316 317 316 315 314 313 312 310 309 308 306 304 305 306 306 306 305 304 304 303 303 302 302 303 303 303 303 303 303 303 303 303 303 303 302 302 301 301 301 301 301 301
323 323 322 321 321 321 321 321 321 321 321 320 319 319 318 317 317 317 316 316 315 315 315 315 314 313 312 312 311 309 308 306 304 304 306 306 306 305 304 304 304 303 302 302 303 303 303 303 303 303 303 303 303 303 302 302 302 301 301 301 301 301 300
323 322 321 320 320 321 321 320 320 319 319 318 318 318 317 317 317 317 316 315 315 314 314 314 313 312 312 311 310 309 307 306 305 305 305 306 306 305 305 304 304 303 303 302 302 302 303 302 302 303 303 303 303 303 302 302 302 301 301 300 300 300 300
322 321 320 320 320 320 320 319 318 318 318 318 317 317 317 316 317 316 315 314 314 313 313 313 311 310 309 308 308 308 307 306 305 305 305 305 305 305 305 305 304 304 303 303 303 303 302 302 302 302 303 303 303 303 302 302 301 301 301 300 300 300 299
321 320 319 319 320 320 319 318 317 317 317 317 317 316 316 316 316 315 314 313 313 312 312 312 310 308 307 306 306 306 306 306 306 306 305 304 304 305 306 305 305 304 303 303 303 303 303 302 302 302 303 303 303 303 302 302 301 301 300 300 299 299 299
320 319 319 319 320 319 318 317 317 316 317 317 316 316 315 315 314 314 313 312 312 311 311 310 309 307 306 305 305 304 305 306 306 306 305 304 304 305 306 306 305 305 304 303 303 303 303 303 303 302 303 303 303 303 302 302 301 301 300 299 299 298 298
319 318 318 319 320 319 317 316 316 316 316 315 315 314 314 313 313 313 312 311 310 310 309 309 308 307 306 305 304 303 303 304 304 305 305 304 304 305 306 306 306 306 305 304 303 303 303 303 303 303 303 303 303 303 302 302 301 300 300 299 298 297 297
318 318 319 319 319 317 316 315 315 315 315 314 313 312 312 311 311 311 311 310 309 309 308 308 307 307 306 305 304 303 302 302 302 303 303 303 304 305 305 306 306 306 306 305 304 304 303 303 303 303 303 303 303 303 302 301 301 300 299 299 298 297 297
318 319 319 319 318 316 315 314 314 313 313 312 311 310 310 310 310 309 309 308 307 307 306 306 307 306 306 305 303 302 301 301 300 301 302 303 304 304 305 305 305 305 305 305 304 304 304 303 303 303 303 302 302 302 302 301 301 300 299 298 298 297 297
318 319 318 317 316 315 314 313 313 312 311 310 309 309 308 308 308 307 307 307 306 305 305 305 305 305 305 304 303 302 300 299 299 300 302 303 304 304 304 304 304 304 304 304 304 304 304 303 303 303 303 302 302 302 302 301 301 300 299 298 297 297 297
318 318 317 316 315 314 313 312 312 310 309 307 307 307 307 307 306 306 305 304 302 301 301 302 303 304 304 303 301 299 298 298 299 300 302 303 303 304 303 303 303 303 303 303 303 303 303 304 303 303 302 302 302 302 302 301 301 300 299 298 297 297 297
317 317 316 314 313 313 312 311 311 309 307 306 306 307 306 305 305 304 303 302 299 297 297 298 299 300 300 299 298 297 297 298 299 300 301 302 302 302 303 303 302 302 303 303 303 302 303 303 303 302 302 302 302 302 302 302 301 300 300 299 298 297 297
317 316 315 313 312 312 311 310 309 308 306 306 306 306 305 304 304 304 303 302 300 298 296 295 296 296 296 296 296 296 297 298 299 299 300 300 300 301 301 301 301 301 302 302 302 302 302 302 302 302 302 302 302 302 302 302 301 301 300 300 298 298 297
316 316 313 312 311 311 310 309 309 308 306 305 305 305 304 304 304 304 304 304 303 301 299 298 297 295 295 295 295 295 296 297 298 298 298 298 298 299 299 299 300 300 301 301 302 302 301 302 302 302 302 302 301 302 302 302 302 301 301 300 299 298 298
316 315 312 312 311 310 309 309 308 307 305 303 304 304 304 304 304 304 304 305 304 303 302 302 300 298 296 295 295 295 296 297 297 297 297 297 298 298 298 298 299 299 300 300 301 301 301 301 302 302 302 301 301 301 301 302 302 302 301 300 300 299 299
315 313 312 312 311 310 309 308 307 306 304 302 303 303 303 303 304 304 304 304 304 304 303 302 302 300 297 295 295 295 296 296 297 297 297 297 297 298 298 298 298 299 299 300 300 301 301 301 301 301 301 301 301 301 301 301 301 301 301 301 300 300 299
314 312 312 312 310 309 308 307 306 305 302 301 301 302 303 303 303 303 304 304 304 305 304 303 302 301 299 297 295 294 295 296 297 297 297 297 297 297 297 298 298 298 298 299 300 300 300 301 301 301 300 300 300 300 300 300 300 301 301 301 300 300 300
313 312 312 311 310 309 308 306 305 304 302 301 300 300 301 302 302 303 303 303 304 305 304 303 302 301 300 299 297 295 295 296 297 297 297 297 297 297 297 297 297 297 297 298 299 299 299 300 300 300 300 300 299 299 300 300 300 300 300 300 300 300 300
313 312 312 311 310 308 307 305 304 303 302 301 300 299 300 301 302 302 302 303 303 304 305 304 303 301 301 300 299 296 294 296 297 297 297 297 297 297 298 297 298 297 297 297 297 298 299 299 299 299 300 299 299 299 300 300 300 300 299 299 299 299 299
313 313 312 310 309 308 307 305 304 302 302 301 299 298 298 299 301 302 302 302 303 303 304 304 303 302 301 300 300 297 295 295 296 297 297 297 297 297 298 298 297 297 297 297 297 297 297 298 299 299 299 298 298 299 300 300 300 299 299 299 299 299 299
313 312 311 310 309 307 306 305 303 302 301 300 299 298 298 298 300 300 301 302 303 303 303 303 303 302 301 300 300 299 296 295 296 297 297 297 298 298 298 298 298 297 297 297 297 297 297 297 298 298 298 298 298 298 299 299 299 299 299 299 298 298 298
312 311 310 309 308 306 305 304 303 302 301 300 299 298 297 298 298 299 300 301 302 302 302 302 302 302 300 300 300 298 296 295 297 298 298 298 298 298 298 298 298 297 297 297 297 297 296 296 297 297 297 297 298 298 298 298 298 298 298 298 298 298 298
311 310 309 308 307 306 304 304 303 302 301 300 298 297 296 296 297 298 299 300 300 301 301 301 301 300 300 300 299 297 296 297 298 298 298 298 298 298 298 298 298 297 297 297 297 297 296 296 296 296 297 297 297 297 297 297 297 297 297 297 297 298 297

ECMWFFLT1_925_thetae_138.txt.gz
Theta_e
336 333 332 331 331 330 330 329 329 329 329 329 328 328 328 328 327 327 326 326 326 325 325 324 323 322 322 321 321 321 320 320 319 318 318 318 318 317 318 318 318 319 318 317 318 319 320 318 317 318 317 316 317 316 313 307 304 303 302 303 305 306 307
335 332 331 331 330 330 329 329 329 329 328 328 328 327 327 327 326 326 326 325 325 324 324 323 322 321 321 320 319 319 319 319 318 318 317 317 316 316 316 316 317 317 316 316 316 317 318 318 317 317 317 317 316 315 313 306 302 302 302 302 303 304 305
332 330 330 330 329 329 329 329 328 328 328 327 327 326 326 325 325 325 325 325 324 324 323 322 321 320 319 318 318 318 318 318 317 317 317 316 316 315 315 315 315 314 314 314 313 313 316 317 317 316 316 316 316 315 312 305 302 302 301 301 302 302 304
331 330 330 329 328 329 329 328 328 328 327 327 326 325 325 325 325 325 325 324 323 322 321 321 320 319 318 317 317 317 317 317 316 316 315 315 315 314 314 314 313 311 311 311 310 311 314 315 315 315 314 315 315 315 311 304 301 302 301 301 301 301 302
332 330 330 329 328 329 328 328 328 327 326 326 325 324 324 324 324 324 324 323 322 321 320 319 318 317 317 316 316 316 316 315 314 314 314 313 313 313 312 312 311 311 310 310 309 310 311 312 312 313 313 313 314 314 310 303 300 301 301 300 300 299 300
332 331 330 329 329 329 328 327 327 326 326 325 324 324 324 324 324 323 322 322 321 320 319 318 317 316 315 315 314 314 314 313 312 312 311 310 310 310 311 311 310 310 309 308 309 309 309 309 309 310 311 311 313 313 308 302 300 300 300 300 300 299 299
332 331 330 330 329 329 328 328 327 327 326 325 324 323 323 323 323 322 322 321 320 318 317 316 315 314 313 312 312 312 311 309 308 307 307 308 309 309 310 310 309 308 308 308 308 307 307 306 307 308 309 309 310 309 305 301 300 300 300 300 299 299 299
331 330 330 330 329 329 328 328 327 326 325 324 323 322 323 323 322 321 320 320 318 317 315 314 313 312 312 311 310 309 307 305 304 304 305 306 308 308 309 308 308 307 306 305 305 304 304 303 303 304 305 307 309 307 303 301 300 299 299 299 299 299 298
331 330 330 330 330 329 328 328 327 325 324 322 322 322 322 322 321 320 319 318 317 316 314 313 312 311 311 310 309 308 305 303 303 303 303 305 306 307 307 307 307 305 304 303 303 302 302 302 301 301 301 303 306 306 303 301 300 300 299 299 299 298 298
332 331 331 330 329 329 328 327 326 324 322 322 322 323 322 320 319 319 318 317 316 315 313 312 311 311 310 309 308 306 303 302 302 301 302 303 305 306 306 306 305 303 302 302 301 301 301 300 300 300 300 300 302 303 303 302 300 299 299 298 298 298 297
332 331 332 331 329 328 327 326 324 322 322 322 322 322 321 320 319 318 318 317 315 314 313 312 310 310 309 308 307 305 302 302 301 300 300 301 303 304 304 304 303 301 301 300 300 300 300 299 299 300 300 300 300 300 301 302 301 299 298 298 297 297 297
332 332 332 330 329 328 327 325 323 322 322 321 321 321 320 319 318 318 317 316 315 314 312 310 309 308 308 307 305 303 302 301 300 299 299 300 301 302 302 302 301 301 300 300 299 299 299 299 299 299 299 299 299 299 299 300 301 299 297 297 297 297 297
332 332 331 330 328 327 326 324 322 321 321 321 320 320 319 318 318 317 317 316 315 313 311 309 308 307 307 306 304 302 301 300 299 299 299 300 300 301 301 301 301 301 300 299 299 299 298 298 298 298 298 297 297 298 297 298 299 298 297 296 297 297 297
332 331 330 329 328 327 325 323 322 321 321 320 319 319 318 317 317 317 317 316 314 313 311 309 307 305 305 305 303 301 300 299 299 299 299 300 301 301 301 301 301 301 300 299 299 298 298 297 297 297 297 297 296 297 297 297 297 298 297 296 297 297 297
331 330 329 328 327 326 324 322 321 321 321 320 319 318 317 316 317 317 317 316 314 312 310 308 306 305 304 303 302 301 300 299 299 299 300 301 301 301 301 302 302 301 301 300 299 298 297 297 297 297 297 297 296 296 296 296 296 296 297 296 296 297 297
330 330 329 327 326 325 323 321 321 321 321 321 319 317 316 316 317 317 316 315 313 312 310 308 306 304 302 302 302 301 300 300 300 300 300 301 301 301 302 302 302 302 301 300 299 298 298 297 297 297 297 296 296 296 296 296 296 295 296 296 296 296 296
329 329 328 327 325 323 321 321 321 321 321 321 320 318 317 316 316 317 316 315 313 312 310 309 306 304 302 301 302 302 301 300 300 300 300 301 301 301 301 301 302 302 301 301 300 298 298 297 297 297 296 296 296 296 296 295 295 295 295 295 295 296 296
328 327 327 325 323 322 321 321 321 321 321 321 320 318 317 317 317 317 316 315 313 312 311 309 307 305 302 301 302 302 301 301 301 301 301 301 301 301 301 301 302 302 302 301 301 299 298 297 297 296 296 296 296 296 296 295 295 295 295 295 295 295 295
327 326 325 324 323 321 321 321 321 321 321 322 320 318 317 317 316 316 316 315 313 312 311 309 308 306 303 302 303 303 302 302 301 301 301 301 301 301 301 301 301 302 302 302 301 300 299 298 297 296 296 296 296 296 296 296 296 295 295 295 295 295 295
325 325 324 324 322 321 321 321 321 321 321 321 320 317 316 316 316 316 316 314 313 312 310 309 308 306 303 302 303 303 303 303 302 302 302 301 301 301 301 301 301 302 302 302 301 300 300 299 298 297 296 296 297 297 297 296 296 296 296 296 295 295 295
324 324 323 322 321 321 320 320 321 321 321 320 319 316 316 315 315 315 315 314 313 312 310 309 308 306 303 302 303 304 303 303 303 302 302 302 302 302 301 301 302 302 302 301 301 301 300 299 299 298 297 297 297 297 297 297 296 296 296 296 296 295 295
323 322 321 320 320 320 320 320 320 320 319 319 317 316 315 315 314 314 314 313 312 311 310 309 307 306 304 302 302 304 304 304 303 303 302 302 302 302 302 302 302 302 302 302 301 301 300 300 299 298 297 297 297 297 297 297 297 296 296 296 296 296 296
321 321 320 320 320 319 319 319 319 318 318 317 316 315 315 314 314 314 313 312 311 310 309 308 307 306 304 302 302 303 304 304 304 304 303 302 302 302 303 302 302 302 302 302 302 301 301 300 300 299 298 298 298 298 297 297 297 297 297 296 296 296 296
320 320 319 319 319 318 318 317 317 317 316 316 315 315 314 314 313 313 312 311 309 308 308 307 306 305 304 302 301 303 304 304 304 304 303 302 302 302 303 302 302 302 302 302 302 301 301 301 300 299 299 299 298 298 298 297 297 297 297 296 296 296 295
319 319 319 319 318 317 316 316 316 316 315 315 315 314 313 313 312 312 311 309 308 308 307 306 305 304 303 302 300 301 304 304 304 304 303 302 302 302 302 302 302 302 302 302 301 301 301 301 301 300 300 299 299 298 298 298 298 297 297 297 296 296 296
319 318 318 318 317 316 315 315 314 314 314 314 313 313 312 312 311 310 310 309 308 307 306 305 304 304 303 301 299 300 303 304 304 304 303 303 303 302 302 302 302 302 302 302 301 301 301 301 301 300 300 300 299 299 299 298 298 298 297 297 297 296 296
319 319 318 318 317 315 314 314 313 313 313 313 312 312 311 310 310 309 309 308 307 306 305 304 304 303 302 300 298 299 302 304 303 303 303 302 302 302 302 302 301 301 302 302 301 301 300 301 300 300 300 300 300 299 299 299 298 298 298 298 297 297 297
319 318 317 316 315 313 313 313 312 312 312 312 312 311 310 309 309 308 308 308 307 306 305 304 303 303 301 299 298 300 302 303 303 303 302 302 302 302 302 302 301 301 301 301 301 301 300 300 300 300 299 299 300 299 299 299 299 298 298 298 297 297 297
318 317 316 314 312 311 312 312 312 311 311 310 310 310 309 308 308 307 306 306 306 304 303 303 303 302 299 297 298 301 302 302 302 302 302 302 302 302 302 301 301 301 301 301 301 301 300 300 300 299 299 299 299 299 299 299 299 299 298 298 298 298 297
316 314 312 310 308 308 310 311 311 310 310 309 308 308 307 307 306 306 305 304 302 301 301 302 301 299 297 297 299 301 301 301 300 300 300 300 300 301 301 301 301 301 301 301 301 301 300 300 299 299 299 299 299 299 299 299 299 298 298 298 298 298 297
314 312 311 310 309 309 310 310 310 309 309 308 307 306 306 305 304 303 301 299 297 297 298 299 298 296 297 298 299 299 299 299 299 299 299 299 299 300 300 300 300 300 300 301 301 301 300 300 299 299 299 299 298 298 298 298 298 298 298 298 297 297 297
315 314 314 313 313 313 312 310 309 308 307 307 306 305 304 303 300 298 296 295 295 295 296 296 296 297 297 298 298 298 298 298 298 298 298 298 298 299 299 299 299 300 300 300 300 300 300 300 299 299 299 299 298 298 298 298 297 297 297 297 297 297 297
316 315 313 311 312 313 311 309 308 307 306 306 305 303 301 299 296 295 294 295 295 294 295 295 296 297 297 297 297 297 297 297 297 298 298 298 298 298 298 298 298 299 299 300 300 300 300 299 299 299 299 299 298 298 298 297 297 297 297 297 297 297 297
315 313 312 311 311 311 310 309 308 306 305 305 304 301 299 297 296 295 295 295 295 294 295 295 296 296 296 296 297 296 297 297 297 297 297 297 297 297 297 297 297 297 298 299 299 299 299 299 299 299 299 299 299 298 298 297 297 297 297 297 296 296 296
314 314 313 312 311 309 307 307 307 306 305 304 303 301 299 298 298 297 297 296 295 295 295 295 295 295 296 296 296 296 296 296 297 297 296 296 296 296 296 296 296 296 297 298 298 299 299 299 299 299 299 299 299 299 298 298 297 297 297 297 296 296 296
315 314 312 312 311 309 306 305 305 305 304 304 303 302 301 300 300 299 298 298 297 297 296 296 295 295 295 295 296 296 296 296 296 296 296 296 297 296 296 296 296 296 296 296 297 298 298 298 298 298 298 298 299 299 298 298 297 297 297 297 296 296 296
314 312 310 310 310 308 306 305 305 304 303 303 303 303 302 302 301 301 300 299 299 298 298 297 296 296 295 295 296 296 296 296 297 296 297 297 297 296 296 296 296 296 296 296 296 297 297 297 297 297 297 297 298 298 298 297 297 297 296 296 296 295 296

ECMWFFLT1_925_thetae_141.txt.gz
Theta_e
336 335 334 332 332 331 330 330 329 330 329 329 329 328 328 328 327 326 326 326 325 325 324 323 322 321 320 320 320 319 319 318 318 320 319 319 320 320 319 319 319 319 318 318 318 318 318 318 318 318 317 317 317 314 310 306 305 305 305 304 304 305 305
335 334 332 331 331 330 330 329 329 329 329 328 328 328 327 327 326 326 326 325 325 324 323 322 321 320 319 319 319 318 318 317 317 317 317 317 317 317 318 319 319 318 318 317 316 317 317 317 316 316 316 316 316 314 309 307 305 304 304 304 303 304 305
334 333 331 330 330 330 330 329 329 329 328 328 327 327 326 325 325 325 325 324 324 322 321 320 320 319 318 318 317 317 317 317 316 316 315 315 315 315 316 317 318 318 318 316 316 316 316 316 315 315 315 314 315 313 307 305 306 304 304 304 303 303 304
334 333 331 330 330 329 330 329 329 328 328 327 326 326 325 325 325 325 324 324 322 321 320 319 319 317 317 317 316 316 316 316 315 315 314 314 314 314 314 314 315 315 315 315 314 314 314 315 314 313 313 312 313 311 305 305 305 304 304 304 303 303 303
335 334 332 330 330 329 330 329 328 328 327 326 326 325 325 325 325 324 323 322 321 320 319 318 317 316 316 315 315 315 315 314 314 313 313 312 313 313 312 312 312 312 312 312 313 312 313 313 312 310 309 310 311 307 304 304 304 304 304 303 303 302 302
335 334 332 331 330 330 330 329 328 327 326 326 326 325 325 324 324 323 322 321 320 319 318 316 315 315 314 314 314 313 313 311 311 310 310 311 311 311 310 310 310 310 310 310 311 311 311 310 309 308 307 308 308 305 304 304 304 304 303 303 302 302 302
334 333 332 331 330 330 330 329 328 327 326 326 325 325 324 324 323 322 321 320 319 317 316 315 314 313 312 312 311 310 309 307 307 308 309 310 310 309 309 308 308 308 308 307 308 307 308 307 306 306 307 307 306 304 304 304 303 303 303 303 302 301 301
334 332 332 331 330 330 330 329 328 327 326 325 325 324 323 323 322 321 320 319 317 315 314 313 312 311 311 310 308 306 305 305 305 306 308 308 308 307 307 306 306 306 306 305 305 305 305 305 305 306 307 307 306 305 305 304 304 303 302 302 302 301 301
333 332 331 330 330 330 330 328 327 326 326 324 324 323 322 322 321 320 319 317 315 314 313 312 311 310 309 308 306 304 304 304 304 305 306 306 306 305 304 305 305 304 304 304 304 304 304 304 305 305 306 307 306 305 306 304 304 304 302 302 302 301 300
333 332 331 330 330 329 329 328 327 326 325 323 323 323 322 321 321 319 318 316 314 313 312 311 310 309 308 306 304 303 303 302 302 303 305 304 304 304 303 303 303 303 303 303 303 303 303 303 304 304 304 305 306 306 306 304 303 304 303 301 302 301 300
332 331 331 330 329 329 328 328 327 325 323 322 322 322 321 320 319 318 317 315 313 312 311 310 309 308 307 305 303 302 301 301 301 302 303 303 303 303 302 302 302 303 303 302 302 302 302 303 303 303 303 303 304 305 306 305 303 302 303 302 301 301 300
332 331 331 330 329 329 328 327 326 324 322 322 322 322 320 319 318 317 316 314 313 311 310 309 308 308 306 304 302 301 300 299 300 302 302 302 303 303 302 302 302 303 302 302 301 301 301 301 302 302 302 302 303 304 305 305 303 302 301 302 301 300 300
331 331 331 330 329 328 328 327 325 323 322 322 322 321 320 319 318 317 315 314 312 310 309 308 307 306 305 303 301 300 299 298 299 302 302 302 302 303 302 301 302 302 302 301 301 301 300 300 300 301 302 302 302 302 303 304 303 302 301 301 301 300 300
329 330 330 330 329 328 327 326 325 323 322 322 322 321 320 318 318 317 315 313 312 310 308 307 306 305 303 301 300 299 298 298 300 303 303 302 302 303 302 302 301 301 300 300 301 301 300 300 300 301 301 301 301 301 302 303 303 302 301 300 300 300 300
329 329 330 329 329 328 327 325 324 323 322 322 321 321 319 318 317 316 315 313 311 309 307 306 305 304 302 301 299 299 298 299 302 303 304 303 303 303 303 302 301 300 299 299 299 300 300 300 300 300 301 301 300 300 300 301 302 302 301 300 300 300 300
329 329 329 329 328 327 326 324 323 322 322 321 320 320 318 317 317 316 315 313 311 309 307 305 304 303 301 300 299 299 299 300 303 304 304 303 303 303 303 302 302 301 300 300 300 299 300 300 301 300 300 300 300 300 299 300 301 301 301 300 299 300 300
329 329 330 329 328 327 325 323 323 322 321 320 320 319 317 317 317 316 315 313 311 309 306 304 303 302 301 300 299 299 299 300 303 304 304 304 304 303 303 303 302 302 301 301 301 300 300 300 301 300 300 300 300 300 299 299 300 300 300 300 299 299 299
329 330 330 329 328 326 324 323 323 322 320 320 319 318 317 317 317 316 315 313 311 309 307 305 303 301 301 300 300 300 299 301 302 303 304 304 304 304 303 303 303 303 302 301 301 300 300 300 300 300 300 300 300 300 300 300 300 300 300 300 299 299 299
329 330 329 328 327 325 324 323 322 321 320 319 318 317 316 317 317 316 314 313 311 310 307 305 303 302 301 300 300 300 300 300 302 302 303 303 303 304 304 303 303 303 302 302 301 300 300 300 300 300 300 300 300 300 300 300 300 300 300 299 299 299 299
329 330 329 328 326 325 323 322 322 321 321 319 318 317 316 317 316 316 315 313 312 310 308 306 304 302 301 301 300 300 300 300 301 301 301 302 303 304 304 304 303 303 303 302 301 301 300 300 300 300 300 300 300 300 300 300 300 300 300 299 299 299 298
329 329 328 327 325 324 322 322 322 321 321 320 319 317 316 316 316 316 314 313 312 311 309 307 305 303 301 301 301 301 301 301 301 301 301 301 302 303 304 304 303 303 303 302 301 301 300 300 300 300 300 300 300 300 301 301 301 300 300 300 299 298 298
328 327 326 325 324 322 322 322 321 321 321 321 320 318 317 317 316 315 314 313 312 311 309 308 306 303 302 301 302 301 301 301 302 301 301 301 301 302 303 303 303 303 302 301 300 300 299 299 300 300 300 300 301 301 300 300 301 300 300 300 300 299 298
325 325 324 323 322 322 322 321 321 321 321 321 320 318 317 316 316 315 314 313 311 310 309 308 306 304 302 302 302 302 302 302 302 302 302 302 301 302 302 302 302 302 301 300 300 299 299 298 298 299 299 299 300 301 301 301 300 300 300 300 300 299 299
324 323 323 322 322 321 321 321 321 321 320 320 319 318 316 316 315 315 314 313 311 310 309 308 306 304 302 301 302 303 303 302 302 302 303 303 303 302 302 302 302 302 301 301 300 300 300 299 298 298 298 298 298 299 300 300 300 301 300 299 299 299 299
322 322 322 322 322 321 321 320 320 319 319 319 318 316 315 315 315 314 314 313 311 310 309 307 306 305 303 301 302 303 303 303 303 302 302 303 303 303 302 302 302 302 301 301 301 300 300 299 299 298 298 298 298 298 298 299 300 300 300 300 299 299 299
321 321 322 322 321 321 320 319 318 318 317 316 316 315 315 314 314 314 313 313 312 310 309 307 305 305 303 301 301 303 304 304 303 303 302 302 302 302 302 302 302 302 301 301 301 301 300 300 299 299 299 299 298 298 298 298 298 299 299 300 300 299 299
321 321 321 321 320 319 318 317 316 315 315 315 314 314 314 314 313 313 313 312 311 310 308 306 305 304 303 301 300 302 304 304 304 303 302 301 302 302 302 302 302 302 301 301 301 301 301 300 300 300 300 300 299 299 298 298 298 298 298 299 300 299 299
321 320 319 319 319 318 317 315 314 314 314 314 314 314 314 314 313 312 312 311 310 308 307 306 304 304 303 301 300 301 304 304 304 304 303 302 302 302 302 302 302 301 301 301 301 301 301 301 301 301 301 301 300 299 298 298 298 298 298 299 299 299 298
320 318 318 318 317 316 315 315 314 314 314 314 314 314 314 313 312 311 311 309 309 307 306 305 304 303 303 301 299 300 303 304 304 304 303 302 302 302 302 301 301 301 301 301 301 300 300 301 301 302 301 301 301 300 299 298 297 297 298 298 298 298 297
319 318 318 317 317 316 315 314 314 314 314 313 313 313 313 312 311 311 310 308 307 306 305 304 304 303 302 301 298 300 303 303 303 303 302 302 302 302 302 302 301 301 301 301 301 300 300 300 302 301 301 301 301 301 300 298 297 297 297 297 297 297 296
319 319 317 316 316 314 313 313 313 313 314 314 313 313 312 311 310 310 309 308 307 306 305 304 303 303 302 299 298 300 302 302 302 302 302 301 301 301 301 301 301 301 301 301 301 300 299 300 302 301 301 301 301 301 300 298 298 298 297 297 297 296 296
318 317 315 315 316 314 313 313 313 313 313 313 313 312 310 309 309 308 308 307 307 306 305 303 302 302 300 297 297 300 302 302 301 301 301 301 301 301 301 301 300 300 300 300 301 301 300 300 301 301 301 301 301 300 299 298 299 299 298 298 297 296 296
318 316 316 317 316 314 314 313 313 313 312 312 311 310 309 308 308 307 306 306 306 304 303 301 300 299 297 296 298 300 301 301 301 300 300 300 300 300 300 300 300 300 300 300 300 301 300 300 300 301 301 301 301 300 299 298 298 298 298 297 297 296 296
316 317 319 317 312 311 312 313 312 311 311 311 310 309 308 307 306 306 305 304 303 301 299 297 297 297 297 297 298 299 300 300 300 299 300 300 300 300 299 299 299 299 299 300 300 300 300 299 299 300 300 300 300 299 298 298 298 297 297 298 297 297 297
316 318 317 313 309 309 311 312 311 310 310 310 309 307 306 305 304 303 301 300 299 298 297 296 296 297 297 298 298 298 298 298 298 299 299 299 299 299 299 298 298 298 299 299 299 299 299 299 299 299 299 299 299 298 298 298 298 298 298 298 298 298 297
317 318 315 311 311 311 310 309 309 309 309 309 307 305 304 302 301 299 297 297 297 296 296 296 296 297 297 297 297 297 297 297 297 298 299 299 299 298 297 297 297 297 297 298 298 298 298 298 299 299 298 298 299 299 298 298 298 298 298 297 297 298 297
318 316 313 312 313 312 310 308 307 307 307 307 306 303 301 298 297 295 295 296 296 296 296 296 296 297 297 297 297 297 297 297 297 297 298 298 298 297 296 296 296 296 296 297 297 298 298 298 298 298 298 298 298 298 298 298 298 298 298 297 297 297 297

ECMWFFLT1_925_thetae_144.txt.gz
Theta_e
339 338 337 336 336 336 335 335 335 334 334 334 333 332 331 331 330 329 329 328 327 327 326 326 326 326 326 326 325 325 324 324 325 324 322 322 323 323 322 321 320 320 319 319 319 319 319 319 319 319 316 317 317 312 309 309 308 308 309 309 308 308 309
339 338 337 336 335 335 335 334 334 334 334 333 332 331 330 330 329 328 328 327 326 326 326 326 325 325 325 325 325 324 324 323 322 322 322 321 321 322 321 321 320 320 320 318 318 318 318 317 318 317 316 317 318 311 308 309 309 308 309 309 308 308 308
338 337 336 336 335 335 334 334 334 334 333 332 331 330 329 328 328 327 327 327 326 325 325 325 325 324 323 323 323 323 322 322 321 320 321 320 320 320 320 319 319 319 319 318 317 317 318 317 317 316 315 316 315 310 308 309 309 308 309 308 308 308 308
336 336 335 336 335 334 334 334 334 333 332 331 330 329 328 328 327 327 326 326 325 324 324 324 323 322 322 322 321 321 320 320 320 319 319 319 318 318 317 317 316 316 317 317 316 316 316 315 315 313 313 314 311 307 308 309 309 308 308 308 307 307 307
336 336 335 335 335 335 335 335 334 333 332 331 329 328 328 327 326 326 325 325 324 324 323 322 321 321 321 320 320 319 319 318 318 318 318 318 317 316 316 316 315 314 314 314 314 313 313 313 313 311 311 313 310 307 308 309 308 308 308 307 307 307 307
336 336 336 335 335 335 334 334 333 332 331 331 329 328 328 327 326 325 325 324 323 322 321 320 320 319 319 318 318 317 316 316 316 316 316 316 316 315 315 314 313 312 311 311 310 310 311 310 311 312 311 310 310 309 308 308 307 307 308 307 306 307 307
336 336 336 335 335 335 334 333 333 332 331 330 329 328 327 326 325 325 324 323 322 321 320 319 318 317 317 316 316 315 315 315 315 314 314 314 314 313 313 312 311 310 309 309 308 308 309 309 310 312 313 311 310 309 308 308 307 306 307 307 306 306 307
336 335 336 335 334 334 334 333 332 332 331 330 328 327 326 325 324 324 323 322 321 319 318 317 317 316 315 314 314 314 314 314 314 312 312 312 312 312 311 310 308 308 308 308 308 307 308 309 308 310 312 313 312 310 309 308 308 306 306 307 306 305 306
336 335 335 335 334 333 333 333 332 331 330 329 327 326 325 325 324 323 322 320 319 318 317 317 316 315 314 313 313 313 313 313 312 312 311 311 311 310 309 308 307 307 307 307 307 307 308 308 308 308 310 312 313 311 308 307 308 307 306 306 306 305 305
335 335 335 334 333 333 333 333 332 331 330 328 327 325 324 324 323 322 321 319 318 317 317 316 315 314 314 313 313 313 312 312 311 311 310 310 309 308 308 307 307 306 307 307 307 307 308 308 307 307 307 310 312 311 309 306 306 307 307 306 305 304 305
335 335 334 334 334 333 332 332 331 330 329 327 326 325 324 323 322 321 320 319 318 317 316 315 314 313 313 313 312 312 311 310 310 310 309 309 308 307 307 307 306 306 306 306 306 307 308 307 307 306 306 308 310 311 309 307 305 306 307 306 304 304 305
335 334 333 333 333 332 332 332 331 330 328 326 325 324 324 322 321 320 319 318 317 316 315 314 313 312 312 311 311 311 310 309 309 309 308 308 307 307 307 307 306 306 306 306 306 306 306 307 306 306 305 306 309 310 308 307 305 304 305 306 305 304 305
335 333 333 333 332 332 332 331 330 329 327 326 325 324 323 322 321 320 319 318 317 316 315 314 313 312 311 310 310 309 309 308 308 308 308 307 306 306 306 306 306 306 306 305 305 305 305 306 306 305 305 304 306 308 308 306 305 304 304 305 304 303 304
334 333 333 332 332 332 331 331 330 328 327 326 325 323 322 322 321 319 318 317 317 315 314 313 312 311 310 309 309 308 308 308 307 308 308 307 306 305 305 305 305 305 305 305 305 305 304 305 304 305 304 304 304 306 307 306 306 304 303 304 304 303 303
333 332 332 332 332 331 331 330 329 328 327 325 324 323 322 321 320 319 318 317 316 315 313 312 311 310 309 308 308 308 308 307 307 307 307 307 306 305 305 304 304 304 305 305 305 305 304 304 304 304 304 304 304 305 306 306 306 305 303 303 303 303 303
333 333 332 332 331 331 331 329 328 328 327 325 324 323 322 321 320 319 318 317 316 315 313 311 310 309 308 308 308 308 307 308 307 307 307 307 306 305 305 305 305 305 305 304 304 305 305 304 304 304 303 303 304 304 305 305 305 305 304 303 302 302 303
333 333 332 332 331 331 329 328 328 328 327 325 324 323 321 321 319 318 318 316 315 314 313 311 309 308 307 307 307 307 307 307 307 307 307 307 306 306 306 305 305 305 305 304 304 304 304 304 304 304 303 303 303 304 304 304 304 304 304 303 302 302 302
332 332 332 331 331 330 328 327 327 327 326 325 324 322 321 320 319 318 317 316 315 314 313 311 309 307 307 307 307 307 307 307 307 307 307 307 306 307 306 306 305 305 305 304 304 304 304 304 304 304 304 303 303 304 304 304 304 304 303 303 302 302 302
332 332 332 331 330 329 327 327 326 325 325 325 323 322 321 320 319 318 317 316 315 314 312 310 309 307 307 307 307 307 307 307 307 307 307 307 307 307 306 306 305 305 305 304 304 304 304 304 304 304 304 304 303 304 304 304 304 304 303 303 302 302 301
332 332 332 331 330 328 327 326 325 324 324 323 323 322 321 320 319 318 317 316 315 314 313 311 309 307 307 307 307 307 307 307 307 307 307 307 307 307 307 306 306 305 305 305 305 305 304 304 304 304 304 304 305 305 304 304 304 304 303 302 302 302 301
332 332 331 331 329 328 326 325 324 323 323 322 322 321 321 320 319 318 317 316 315 314 313 311 309 307 307 307 307 307 307 307 308 307 307 308 307 307 306 306 306 305 304 304 304 304 305 305 305 304 304 304 305 305 305 304 304 303 304 303 302 301 301
332 331 331 330 329 327 326 324 323 322 322 322 322 321 321 320 319 318 317 316 315 314 313 312 309 307 307 307 307 307 307 307 307 307 307 308 307 307 307 307 306 303 301 300 299 299 301 303 304 304 304 305 305 305 304 304 304 303 303 303 303 302 301
331 330 330 329 328 326 325 324 323 322 321 321 321 321 321 320 319 318 317 316 315 314 314 312 309 307 306 307 307 307 307 307 307 307 307 308 308 307 307 306 303 300 300 299 299 298 298 298 298 299 300 302 305 305 305 304 304 303 303 303 303 303 302
329 329 328 327 326 325 325 323 322 321 320 320 320 321 321 320 319 318 317 317 316 315 314 311 308 305 305 306 307 307 307 307 307 307 307 307 308 307 306 305 303 301 301 300 299 298 298 297 297 296 296 297 300 302 304 305 304 303 302 302 302 303 303
328 327 326 325 325 325 324 323 321 321 320 319 319 320 321 320 319 318 317 317 316 315 314 310 307 304 303 304 307 307 307 308 307 307 307 307 307 307 307 306 305 304 303 302 300 300 298 298 297 297 296 296 296 297 300 302 304 305 303 302 302 302 302
327 325 325 325 324 324 322 321 320 320 320 319 319 320 320 320 319 318 318 317 316 315 313 309 306 304 301 302 305 307 308 308 308 308 308 307 307 307 307 307 307 307 304 302 302 302 300 299 298 298 298 298 296 296 296 298 300 303 303 302 301 301 301
326 324 324 324 323 322 321 320 320 320 319 319 319 319 320 320 319 319 318 317 316 315 312 309 306 304 302 300 302 306 308 308 308 308 307 307 307 307 307 307 307 306 304 304 305 304 303 302 302 302 303 302 301 300 300 300 301 302 303 303 302 301 301
325 324 323 322 321 321 320 320 319 318 319 319 319 319 320 320 319 318 318 317 316 314 312 309 306 305 302 300 301 305 308 308 308 307 307 307 307 307 307 307 306 305 305 306 305 305 305 305 304 304 304 304 303 303 302 300 300 301 302 302 302 301 300
323 323 322 321 320 320 320 319 319 318 318 318 318 318 319 319 318 318 317 317 316 314 312 309 306 305 303 300 301 305 308 308 307 307 307 307 307 306 306 307 306 306 306 306 304 302 304 305 304 304 304 304 304 303 300 298 297 297 298 298 298 298 297
321 321 322 322 321 320 319 318 318 318 317 317 316 317 317 317 317 317 317 316 315 313 311 308 306 305 304 301 301 304 307 307 307 307 306 306 306 306 306 306 306 306 306 305 303 300 301 304 305 304 304 304 304 304 302 299 297 296 297 296 296 295 295
322 321 322 322 321 319 318 318 318 318 317 316 316 315 315 316 316 316 315 315 314 313 310 308 306 305 304 301 301 304 306 306 307 307 306 306 306 306 305 304 305 306 306 305 302 300 300 303 305 304 304 304 304 303 302 302 301 300 299 299 298 297 296
324 323 321 321 319 317 317 318 318 317 316 315 315 314 314 314 314 314 314 314 313 311 309 308 306 305 304 302 301 304 306 305 306 307 306 306 306 306 305 303 302 304 306 304 301 300 300 302 304 305 304 304 304 303 302 303 303 303 302 301 301 301 300
324 323 321 319 317 316 316 317 317 316 314 314 314 313 313 313 312 312 312 311 311 310 309 307 306 304 304 302 300 303 305 305 306 306 305 305 305 305 305 303 301 302 303 302 301 301 300 301 304 305 304 304 305 303 302 302 300 300 302 301 301 301 301
323 322 321 319 317 315 316 317 317 316 314 313 312 312 311 311 310 310 310 309 309 308 308 307 306 304 303 302 300 302 305 305 305 305 305 304 304 304 304 304 302 300 301 301 300 301 300 300 301 303 304 305 303 301 302 302 300 300 302 301 301 301 301
320 319 319 319 316 316 316 316 316 316 314 312 312 310 309 309 309 308 308 308 308 307 306 306 305 304 302 300 298 301 305 305 304 304 304 303 303 304 303 304 303 301 300 300 300 300 301 300 299 301 303 302 299 298 299 301 301 301 302 301 301 301 300
317 316 316 316 316 317 316 314 313 313 312 311 310 309 309 308 308 307 306 306 306 306 305 305 304 302 300 298 297 299 303 303 302 303 303 302 303 303 303 304 303 300 299 300 300 300 300 300 299 300 301 300 298 297 298 300 301 302 301 300 300 300 300
315 315 314 314 316 316 314 312 311 311 310 309 308 308 307 307 307 306 305 304 304 304 303 302 302 299 297 296 297 298 301 302 300 301 303 303 302 302 303 303 301 299 298 299 299 299 299 299 299 299 299 298 298 298 298 301 302 301 300 300 300 300 300